Temp
-13 -12 -12 -12 -12 -13 -13 -13 -14 -14 -14 -14 -15 -15 -15 -15 -15 -15 -15 -15 -15 -15 -15 -15 -15 -15 -15 -15 -15 -15 -15 -14 -14 -14 -14 -14 -14 -14 -14 -14 -14 -14 -13 -13
-12 -12 -12 -12 -12 -12 -12 -13 -13 -13 -14 -14 -14 -14 -14 -14 -14 -15 -15 -15 -15 -15 -15 -15 -15 -15 -14 -14 -14 -14 -14 -14 -14 -14 -14 -14 -14 -14 -14 -13 -13 -13 -13 -13
-13 -12 -12 -12 -12 -12 -12 -12 -12 -12 -13 -13 -13 -13 -14 -14 -14 -14 -14 -14 -14 -14 -14 -14 -14 -14 -14 -14 -14 -14 -14 -13 -13 -13 -13 -13 -13 -13 -13 -13 -13 -13 -13 -12
-12 -12 -12 -12 -12 -12 -11 -12 -12 -12 -12 -12 -12 -13 -13 -13 -13 -13 -13 -13 -13 -13 -13 -13 -13 -13 -13 -13 -13 -13 -13 -13 -12 -12 -12 -12 -12 -12 -12 -12 -12 -12 -12 -12
-12 -12 -12 -12 -13 -12 -12 -11 -11 -12 -12 -12 -12 -12 -12 -12 -12 -12 -12 -12 -12 -12 -12 -12 -12 -12 -12 -12 -12 -12 -12 -12 -12 -12 -12 -12 -12 -12 -12 -12 -12 -12 -12 -12
-12 -12 -12 -12 -12 -12 -12 -11 -11 -11 -11 -11 -12 -12 -12 -12 -12 -12 -12 -12 -12 -12 -12 -11 -11 -11 -11 -12 -12 -12 -12 -12 -12 -12 -12 -12 -12 -12 -12 -12 -12 -12 -12 -12
-12 -12 -12 -12 -11 -12 -12 -11 -11 -11 -11 -11 -11 -11 -11 -11 -11 -12 -11 -11 -11 -11 -11 -11 -11 -11 -11 -11 -11 -11 -11 -12 -12 -12 -12 -12 -12 -12 -12 -12 -12 -12 -12 -12
-12 -12 -12 -12 -12 -12 -12 -11 -11 -11 -11 -11 -11 -11 -11 -11 -11 -11 -11 -11 -10 -10 -11 -11 -11 -11 -11 -11 -11 -11 -11 -11 -11 -11 -11 -12 -12 -12 -12 -12 -12 -12 -12 -12
-12 -12 -12 -12 -12 -12 -11 -11 -11 -11 -11 -11 -11 -11 -11 -11 -11 -11 -11 -11 -11 -11 -11 -11 -11 -11 -11 -11 -11 -11 -11 -11 -11 -11 -11 -12 -12 -12 -12 -12 -12 -12 -12 -12
-13 -13 -13 -12 -12 -12 -12 -11 -11 -11 -11 -11 -11 -12 -11 -11 -12 -11 -11 -12 -11 -11 -12 -12 -12 -12 -11 -11 -11 -11 -12 -11 -11 -12 -12 -12 -12 -12 -12 -12 -12 -12 -12 -13
-13 -13 -13 -13 -13 -12 -12 -12 -12 -11 -11 -11 -11 -11 -11 -11 -11 -11 -12 -11 -11 -11 -11 -12 -12 -12 -12 -12 -12 -12 -12 -12 -12 -11 -11 -12 -12 -12 -12 -12 -12 -12 -12 -13
-14 -14 -13 -13 -13 -12 -12 -12 -12 -12 -12 -11 -12 -11 -11 -11 -12 -11 -11 -11 -11 -11 -11 -11 -11 -12 -12 -12 -11 -12 -12 -12 -11 -11 -12 -12 -11 -12 -12 -12 -12 -12 -12 -12
-14 -14 -14 -13 -14 -13 -13 -13 -12 -12 -13 -12 -11 -12 -12 -12 -12 -12 -12 -12 -11 -12 -12 -11 -11 -12 -12 -12 -12 -12 -12 -11 -10 -11 -12 -12 -12 -11 -11 -12 -12 -12 -12 -12
-15 -15 -14 -14 -14 -14 -13 -13 -13 -13 -13 -13 -12 -12 -12 -12 -12 -12 -12 -12 -12 -12 -11 -11 -11 -12 -12 -12 -12 -12 -12 -11 -11 -11 -12 -12 -12 -12 -12 -12 -12 -12 -12 -12
-17 -16 -15 -15 -14 -14 -14 -14 -13 -13 -13 -13 -13 -13 -13 -13 -13 -13 -13 -13 -13 -12 -12 -12 -12 -13 -12 -11 -13 -14 -13 -12 -12 -11 -12 -11 -13 -12 -12 -12 -13 -13 -13 -13
-15 -16 -16 -16 -15 -14 -14 -14 -14 -13 -13 -13 -14 -14 -15 -15 -14 -14 -14 -13 -13 -13 -12 -13 -13 -13 -13 -11 -12 -15 -15 -13 -11 -11 -13 -13 -13 -13 -13 -13 -13 -13 -13 -13
-16 -16 -16 -16 -16 -16 -16 -16 -15 -15 -14 -13 -13 -15 -15 -15 -15 -15 -15 -14 -14 -14 -13 -13 -14 -14 -14 -13 -14 -13 -14 -14 -14 -14 -13 -13 -13 -13 -14 -14 -14 -14 -14 -14
-17 -17 -17 -17 -17 -17 -17 -17 -16 -16 -15 -15 -14 -15 -17 -16 -16 -16 -16 -15 -15 -14 -14 -13 -14 -14 -14 -14 -14 -14 -14 -13 -14 -14 -14 -13 -12 -13 -13 -14 -14 -15 -16 -15
-18 -18 -18 -18 -18 -17 -17 -18 -17 -17 -16 -16 -15 -17 -16 -16 -16 -16 -16 -16 -15 -15 -14 -14 -14 -14 -14 -14 -14 -14 -13 -13 -13 -14 -14 -14 -14 -14 -14 -14 -15 -16 -17 -17
-18 -18 -18 -18 -18 -18 -17 -17 -17 -17 -17 -16 -16 -16 -16 -16 -16 -16 -16 -16 -16 -15 -14 -15 -14 -14 -14 -14 -14 -14 -14 -14 -14 -14 -14 -14 -15 -15 -15 -17 -17 -18 -18 -18
-18 -18 -18 -18 -18 -18 -17 -17 -16 -16 -16 -17 -17 -16 -16 -16 -16 -16 -16 -16 -16 -15 -15 -15 -15 -15 -16 -15 -15 -14 -14 -15 -15 -15 -15 -15 -15 -16 -18 -19 -19 -19 -19 -19
-19 -19 -18 -18 -18 -18 -17 -17 -17 -17 -17 -17 -17 -17 -17 -17 -16 -16 -16 -16 -15 -15 -15 -14 -15 -19 -17 -16 -16 -16 -16 -16 -17 -17 -18 -17 -18 -19 -20 -21 -21 -21 -21 -20
-19 -19 -19 -19 -18 -18 -17 -17 -17 -17 -17 -18 -18 -18 -18 -18 -19 -18 -17 -17 -16 -15 -15 -15 -19 -21 -18 -17 -18 -17 -18 -19 -19 -19 -20 -21 -21 -22 -22 -22 -23 -22 -21 -21
-20 -20 -19 -19 -18 -18 -18 -18 -18 -19 -20 -21 -20 -20 -21 -21 -21 -20 -19 -19 -17 -16 -15 -17 -21 -20 -21 -20 -20 -20 -21 -21 -21 -21 -21 -22 -22 -22 -23 -23 -23 -22 -21 -21
-22 -21 -20 -19 -19 -19 -19 -20 -21 -22 -23 -23 -23 -23 -24 -24 -23 -21 -21 -21 -18 -18 -19 -22 -22 -21 -21 -22 -23 -23 -23 -22 -22 -22 -22 -22 -22 -23 -23 -23 -23 -23 -23 -22
-24 -22 -20 -20 -20 -21 -22 -22 -23 -24 -24 -25 -25 -26 -26 -25 -24 -22 -22 -21 -20 -22 -23 -23 -23 -23 -23 -23 -24 -23 -23 -23 -22 -23 -23 -22 -23 -23 -23 -23 -23 -23 -23 -23
-25 -22 -22 -23 -23 -23 -24 -24 -25 -25 -26 -26 -27 -27 -26 -25 -24 -22 -22 -22 -23 -24 -24 -24 -24 -24 -24 -24 -24 -24 -24 -23 -23 -23 -23 -23 -23 -23 -23 -23 -23 -23 -23 -23
Height
5774 5769 5765 5762 5759 5757 5755 5752 5750 5746 5743 5741 5739 5738 5737 5736 5734 5734 5734 5735 5735 5736 5737 5739 5740 5742 5743 5744 5745 5746 5747 5746 5746 5745 5744 5742 5741 5739 5737 5734 5733 5730 5727 5728
5779 5775 5771 5768 5765 5762 5759 5757 5755 5753 5750 5748 5746 5744 5743 5742 5741 5740 5740 5740 5741 5741 5742 5743 5744 5745 5746 5746 5746 5746 5746 5746 5745 5745 5744 5741 5739 5737 5734 5730 5727 5727 5722 5723
5783 5780 5776 5772 5769 5766 5764 5762 5760 5758 5756 5753 5751 5749 5748 5747 5746 5745 5745 5745 5745 5745 5746 5746 5746 5747 5747 5747 5746 5746 5746 5744 5743 5742 5740 5738 5736 5733 5730 5726 5723 5721 5719 5713
5786 5783 5780 5776 5773 5770 5768 5765 5764 5762 5760 5758 5757 5755 5753 5751 5749 5748 5747 5746 5746 5747 5747 5746 5746 5746 5746 5746 5746 5745 5744 5743 5742 5740 5738 5736 5734 5732 5728 5725 5722 5719 5716 5711
5786 5784 5782 5779 5776 5772 5770 5768 5765 5763 5762 5760 5759 5758 5757 5755 5754 5753 5751 5750 5749 5748 5748 5748 5747 5746 5746 5745 5745 5744 5743 5743 5740 5738 5736 5734 5732 5728 5726 5722 5719 5716 5713 5710
5785 5783 5781 5779 5777 5774 5772 5769 5767 5765 5763 5761 5760 5759 5758 5756 5755 5755 5754 5753 5752 5751 5751 5749 5748 5748 5747 5746 5745 5743 5741 5740 5739 5737 5735 5733 5731 5728 5724 5721 5717 5714 5711 5707
5785 5782 5780 5778 5775 5773 5771 5769 5767 5764 5763 5762 5760 5758 5757 5756 5755 5754 5753 5753 5752 5752 5750 5749 5748 5747 5746 5745 5744 5742 5741 5739 5737 5736 5733 5731 5728 5724 5721 5718 5714 5710 5707 5703
5782 5781 5778 5777 5774 5772 5770 5767 5766 5764 5762 5760 5759 5758 5756 5755 5754 5753 5751 5750 5750 5749 5749 5748 5746 5745 5743 5742 5741 5739 5737 5735 5733 5732 5730 5729 5724 5721 5718 5714 5710 5706 5702 5698
5775 5775 5775 5774 5772 5769 5767 5765 5763 5761 5760 5758 5757 5756 5755 5754 5752 5751 5751 5750 5748 5747 5746 5745 5744 5743 5741 5740 5737 5735 5733 5732 5730 5726 5723 5722 5717 5713 5711 5708 5705 5700 5696 5692
5769 5768 5768 5767 5767 5766 5763 5762 5761 5758 5756 5754 5753 5751 5752 5751 5750 5748 5747 5745 5745 5744 5743 5742 5740 5738 5738 5737 5735 5732 5729 5727 5724 5720 5718 5719 5712 5708 5707 5704 5703 5696 5692 5687
5760 5761 5760 5759 5760 5759 5758 5757 5755 5754 5752 5751 5749 5746 5746 5745 5745 5743 5743 5743 5741 5739 5737 5736 5735 5734 5732 5731 5729 5725 5724 5721 5718 5715 5711 5709 5708 5704 5701 5698 5694 5690 5687 5683
5749 5751 5751 5750 5750 5750 5751 5750 5749 5748 5747 5746 5743 5742 5740 5738 5738 5736 5736 5735 5734 5733 5732 5731 5729 5727 5725 5724 5722 5718 5717 5713 5711 5711 5707 5700 5698 5696 5692 5688 5686 5682 5678 5674
5737 5739 5741 5741 5740 5741 5740 5741 5741 5742 5740 5738 5739 5737 5735 5731 5730 5729 5728 5726 5725 5723 5722 5722 5721 5720 5718 5716 5716 5713 5708 5703 5704 5703 5703 5697 5694 5690 5687 5683 5679 5675 5671 5666
5723 5725 5728 5730 5731 5730 5730 5730 5731 5731 5732 5730 5728 5728 5726 5726 5724 5722 5721 5718 5718 5716 5713 5711 5712 5711 5709 5710 5709 5707 5701 5696 5693 5692 5689 5687 5685 5681 5678 5675 5670 5665 5660 5656
5709 5710 5712 5715 5717 5718 5719 5718 5716 5717 5719 5720 5720 5717 5716 5714 5714 5713 5712 5711 5708 5706 5705 5704 5702 5702 5697 5697 5699 5699 5693 5686 5681 5681 5677 5674 5673 5668 5664 5661 5656 5652 5649 5646
5695 5695 5697 5699 5701 5704 5704 5706 5705 5703 5703 5703 5705 5708 5707 5704 5703 5702 5700 5698 5697 5695 5693 5692 5691 5689 5687 5684 5688 5688 5678 5667 5666 5669 5667 5663 5661 5657 5652 5648 5644 5640 5635 5630
5681 5682 5683 5684 5686 5687 5688 5689 5691 5690 5688 5688 5688 5691 5696 5694 5692 5690 5687 5685 5684 5682 5680 5680 5679 5677 5673 5671 5672 5663 5662 5660 5655 5651 5649 5650 5644 5641 5636 5632 5628 5625 5622 5617
5667 5667 5668 5669 5671 5672 5673 5672 5675 5674 5674 5673 5672 5675 5680 5677 5679 5678 5676 5673 5672 5671 5669 5667 5666 5662 5661 5659 5652 5651 5648 5646 5642 5638 5633 5630 5627 5622 5617 5614 5610 5607 5603 5598
5652 5654 5653 5657 5658 5659 5659 5660 5661 5659 5660 5658 5659 5659 5655 5659 5661 5660 5661 5662 5660 5659 5657 5655 5652 5651 5646 5640 5639 5636 5634 5632 5627 5619 5614 5610 5605 5604 5601 5597 5591 5588 5583 5579
5639 5638 5641 5643 5645 5645 5648 5648 5647 5645 5646 5644 5646 5641 5640 5638 5637 5637 5639 5640 5640 5640 5641 5637 5637 5635 5628 5627 5624 5619 5618 5612 5609 5604 5598 5592 5586 5582 5579 5576 5572 5568 5564 5559
5623 5625 5627 5629 5629 5630 5631 5632 5632 5631 5629 5629 5627 5626 5624 5622 5622 5620 5619 5617 5616 5618 5620 5617 5615 5610 5609 5605 5602 5598 5594 5589 5584 5578 5572 5566 5564 5560 5556 5553 5550 5547 5543 5540
5605 5609 5612 5615 5614 5614 5617 5617 5616 5611 5612 5609 5607 5606 5604 5602 5602 5600 5601 5600 5600 5599 5599 5596 5591 5586 5588 5584 5580 5577 5572 5566 5559 5555 5552 5547 5542 5539 5536 5534 5532 5529 5527 5524
5586 5591 5595 5597 5600 5600 5600 5600 5599 5591 5590 5587 5586 5585 5583 5581 5580 5579 5580 5580 5581 5580 5580 5580 5578 5571 5567 5565 5561 5556 5548 5542 5541 5539 5536 5533 5531 5526 5523 5521 5518 5517 5514 5510
5566 5571 5578 5579 5583 5585 5584 5581 5575 5573 5568 5566 5564 5562 5562 5559 5559 5560 5560 5559 5560 5561 5562 5562 5556 5555 5550 5543 5534 5532 5530 5527 5524 5521 5520 5517 5513 5512 5509 5505 5504 5503 5500 5497
5545 5550 5556 5565 5569 5566 5564 5559 5554 5549 5548 5546 5544 5542 5540 5537 5539 5542 5541 5538 5542 5543 5546 5540 5533 5531 5524 5521 5518 5515 5513 5511 5509 5508 5503 5500 5496 5494 5494 5489 5486 5484 5482 5479
5521 5529 5541 5549 5548 5548 5544 5540 5536 5531 5529 5524 5521 5517 5516 5519 5519 5524 5523 5522 5526 5531 5526 5518 5511 5510 5508 5503 5500 5499 5496 5494 5492 5489 5486 5485 5482 5479 5476 5471 5467 5465 5463 5459
5498 5518 5524 5525 5526 5530 5526 5520 5513 5508 5506 5506 5500 5495 5495 5498 5498 5504 5504 5508 5509 5503 5498 5496 5491 5487 5487 5486 5484 5483 5480 5479 5476 5472 5470 5469 5466 5461 5456 5452 5449 5446 5443 5440
Wind_Speed
31 29 25 25 27 27 26 27 26 27 29 28 27 26 26 26 27 26 25 24 23 22 21 20 18 17 16 13 11 8 5 3 1 2 5 7 10 13 14 16 16 16 17 9
32 28 24 22 19 21 22 23 22 21 21 22 23 22 22 23 23 23 22 22 21 21 19 18 16 15 13 12 10 7 6 5 5 6 9 11 11 17 18 21 19 14 20 12
33 28 25 21 20 15 15 16 18 19 19 19 19 19 19 20 20 20 20 20 19 18 17 15 14 13 11 10 9 7 7 7 5 8 8 6 7 12 17 18 14 18 16 18
29 28 25 23 18 16 16 10 10 12 13 14 15 15 15 15 15 16 15 15 15 14 14 14 13 13 13 12 12 11 9 10 11 13 13 13 13 12 15 16 13 13 12 19
27 26 24 21 21 15 14 12 11 7 6 7 8 9 10 10 11 11 10 11 11 11 11 10 10 9 9 10 10 9 9 8 10 12 14 15 14 16 16 17 17 19 18 16
22 24 24 19 21 14 15 11 9 10 10 5 4 3 3 3 4 5 5 6 6 6 6 5 4 4 3 3 4 4 5 5 5 8 10 12 11 13 15 17 16 19 19 20
21 19 22 21 17 11 15 12 10 6 6 6 7 5 3 4 4 4 3 4 5 3 2 2 2 3 4 4 4 5 5 6 8 6 9 10 13 16 17 18 17 19 19 19
26 22 19 21 20 13 13 11 11 10 7 6 6 4 3 5 5 4 1 1 2 2 3 4 5 4 4 6 8 8 9 10 10 10 9 10 17 17 17 20 23 22 25 24
29 26 19 21 23 19 14 13 11 8 8 8 9 10 8 7 6 4 4 4 2 2 5 6 8 11 11 11 14 16 17 17 16 17 15 16 19 21 18 20 19 22 24 24
33 31 27 21 22 23 20 17 16 12 9 8 8 9 10 10 11 12 9 7 8 8 9 10 10 12 13 15 17 20 20 20 22 26 24 19 24 27 25 25 26 26 27 28
34 32 31 29 24 22 22 23 20 20 16 13 11 9 10 11 11 12 14 11 10 10 9 11 12 13 13 15 16 21 22 23 22 24 26 27 25 27 29 31 30 32 32 33
41 40 36 35 33 27 28 26 26 26 25 21 18 18 17 18 17 13 11 15 17 17 19 18 17 16 15 14 14 22 22 25 24 19 20 27 30 29 32 33 32 34 35 35
46 44 43 40 39 36 33 30 28 31 32 33 27 24 25 22 20 17 18 21 21 23 22 21 20 19 19 16 14 17 23 30 28 26 22 28 25 28 30 33 34 35 36 36
51 49 49 47 45 44 38 36 35 32 35 37 38 34 33 33 29 25 23 25 25 26 26 25 24 24 23 19 15 17 27 33 33 31 32 34 31 33 35 36 37 39 41 41
53 51 52 49 47 47 46 43 41 42 37 38 42 42 37 36 35 34 31 31 32 32 32 33 32 28 30 28 23 16 27 38 40 37 38 39 38 43 47 48 45 44 45 46
56 53 52 51 50 51 52 49 47 44 45 44 41 44 41 40 40 39 39 38 38 38 37 36 36 37 37 39 32 23 33 45 46 41 41 45 47 49 52 52 51 52 53 50
55 55 56 59 58 55 54 53 51 46 45 47 48 44 42 43 43 44 42 42 43 43 43 42 43 42 45 46 42 48 46 46 49 51 52 53 56 57 54 55 57 60 58 55
58 57 54 53 55 56 52 52 52 46 45 48 50 48 39 44 46 47 48 49 49 49 50 50 50 52 52 52 55 53 54 56 56 57 59 62 65 66 66 66 65 62 58 59
46 45 43 42 40 40 41 47 48 46 45 47 49 48 53 52 50 51 52 53 54 56 57 57 58 57 57 61 62 62 62 63 63 62 65 67 70 71 70 69 67 63 61 61
49 45 46 47 46 45 45 47 51 50 49 50 51 55 55 56 58 59 59 58 57 60 62 63 63 63 66 66 65 66 66 69 70 72 73 73 71 71 69 65 62 61 61 63
54 52 53 54 52 51 51 52 51 54 58 57 58 59 60 61 59 59 64 65 67 67 68 67 69 69 64 65 68 70 71 71 72 73 72 72 74 72 65 59 56 52 45 43
64 62 60 58 56 56 58 58 58 62 61 63 63 63 63 64 65 67 69 71 72 73 72 74 74 62 65 69 69 68 70 69 68 70 70 72 71 66 60 49 43 44 48 53
68 68 69 68 65 62 64 63 63 67 67 67 66 66 65 65 66 69 69 69 70 72 76 75 60 51 62 67 66 69 69 65 67 66 63 60 57 56 53 48 45 44 40 40
65 64 65 68 68 69 67 65 67 67 65 63 65 66 66 65 66 65 67 71 75 77 77 70 56 60 59 64 67 65 63 62 61 61 61 58 57 55 52 49 48 48 57 55
65 65 66 67 65 63 61 62 62 62 62 61 62 63 64 63 64 66 69 70 73 74 67 60 60 63 65 61 57 57 60 63 63 60 60 58 56 52 51 54 59 60 62 63
64 65 67 63 61 59 59 60 59 59 60 62 63 63 63 65 67 68 69 72 71 61 61 64 65 64 62 61 60 59 59 59 58 58 59 58 55 52 49 49 54 60 66 67
70 65 62 60 59 56 57 60 63 63 64 65 67 67 69 71 72 72 71 67 64 64 66 66 67 67 66 63 63 62 61 59 57 58 57 56 54 53 53 53 54 53 54 58
Wind_Direction
27 28 34 40 45 44 47 51 57 63 70 76 80 81 80 79 82 83 83 85 89 94 99 102 107 111 111 111 114 118 110 104 87 323 305 303 302 299 299 294 296 297 297 20
19 25 27 33 38 47 47 46 51 52 55 62 67 68 68 69 72 76 78 82 83 84 86 87 87 88 87 87 82 71 54 28 353 323 312 308 306 300 304 300 301 310 290 324
12 16 22 22 29 33 45 53 50 51 52 53 58 63 64 65 68 70 71 73 73 74 74 71 67 61 55 49 40 31 18 21 360 356 10 358 318 297 309 326 322 295 318 280
11 7 12 15 17 24 32 27 46 56 56 58 58 60 66 68 71 70 71 71 67 62 58 54 50 48 44 42 40 32 22 9 7 9 8 10 5 2 355 359 356 6 308 322
5 2 2 11 10 14 17 25 29 16 36 50 61 62 54 55 58 57 62 65 62 57 54 53 51 52 47 51 48 43 29 29 360 5 0 0 2 357 352 350 349 352 354 350
352 356 356 2 4 7 9 8 18 27 28 6 349 360 48 61 54 44 28 28 42 38 39 46 37 28 31 6 4 15 19 13 6 336 335 336 339 339 344 339 342 348 345 343
336 337 343 345 343 352 358 358 352 1 7 19 31 21 330 312 308 303 331 346 351 343 354 355 340 325 334 343 345 330 328 332 335 335 340 324 330 328 328 329 330 326 326 326
321 323 318 332 333 324 337 347 345 339 334 337 331 332 15 36 39 16 10 313 333 330 326 315 314 303 310 311 313 315 319 319 324 322 333 329 314 318 317 322 316 316 315 316
308 311 310 305 320 310 307 319 323 327 321 312 314 306 297 292 289 291 304 312 304 286 264 273 290 298 298 301 303 304 309 311 304 306 310 317 302 302 299 302 302 300 298 304
301 302 304 304 304 307 296 290 295 298 287 283 286 279 283 296 301 295 280 280 282 288 293 289 284 281 279 287 292 291 291 295 300 298 298 299 291 295 306 307 308 306 304 305
291 294 297 299 300 289 294 285 280 275 275 268 262 254 258 271 287 299 280 286 281 294 288 293 292 292 296 298 301 295 298 299 300 309 314 311 307 312 311 310 312 309 311 307
287 290 291 294 294 286 282 287 280 276 269 263 260 254 248 258 266 263 254 262 270 280 283 284 282 287 285 287 284 288 298 293 298 314 331 313 314 314 313 313 313 308 311 312
283 284 287 288 289 288 281 279 281 274 275 271 262 261 263 252 253 248 254 261 265 272 278 281 287 286 287 293 300 298 288 287 298 305 299 295 304 303 309 313 315 314 312 310
278 281 282 284 284 285 284 285 284 281 271 269 269 264 261 266 262 257 261 266 267 268 270 271 276 280 282 278 285 285 284 290 293 296 294 295 300 302 306 309 310 310 308 308
277 277 278 278 280 281 283 281 283 284 276 273 265 266 264 262 259 263 264 264 268 266 270 274 275 279 276 280 286 295 284 285 284 288 291 294 298 300 302 302 300 302 308 308
274 275 276 277 279 281 281 281 282 281 280 275 268 260 265 266 267 269 268 267 268 269 270 270 274 277 279 279 284 296 274 276 286 292 291 291 294 296 298 299 298 300 302 297
268 271 274 276 277 276 278 280 282 281 279 277 273 268 262 265 267 267 268 270 273 274 275 277 281 283 281 282 291 278 282 285 288 292 294 298 297 297 294 293 294 298 299 295
269 269 270 272 275 276 276 273 276 274 274 277 278 276 281 274 270 270 268 269 272 272 274 277 282 282 286 288 284 287 288 290 293 295 295 296 295 296 296 295 296 295 292 289
262 267 267 269 273 280 280 270 267 269 275 277 278 283 279 278 277 277 276 275 274 272 275 279 280 283 287 284 286 290 292 293 295 294 295 296 295 295 292 290 290 291 288 284
264 267 267 267 268 272 274 275 268 266 271 274 278 282 285 285 285 285 284 283 284 283 281 283 284 285 285 286 288 288 289 288 288 289 289 288 288 290 289 289 290 288 285 283
262 266 269 268 270 271 273 273 274 274 274 280 283 285 288 287 287 288 288 289 289 286 286 287 288 289 291 290 290 290 291 293 294 293 292 293 293 294 297 299 299 299 296 290
265 265 267 271 276 278 277 277 282 284 283 284 285 286 286 286 288 289 290 290 291 291 291 291 293 298 294 293 294 294 293 293 291 292 294 294 295 298 302 304 305 298 291 288
266 266 269 273 274 276 277 283 287 287 287 285 284 284 285 285 285 288 290 290 290 292 291 293 294 293 292 290 290 289 287 287 290 293 294 295 295 296 297 293 290 280 272 274
262 266 267 270 275 278 281 281 281 281 280 281 282 282 282 282 282 284 286 287 291 293 296 294 293 289 287 285 283 284 288 291 289 290 294 296 294 292 288 277 274 273 272 280
258 261 264 271 276 278 277 275 274 275 277 277 278 279 279 278 278 280 282 283 289 293 295 293 288 285 284 286 287 285 286 288 290 293 292 292 290 288 283 276 274 273 274 277
255 259 270 273 271 270 270 270 272 273 274 275 275 275 274 273 275 279 281 285 292 293 287 282 282 281 280 280 281 283 284 286 289 290 290 291 292 292 290 284 280 274 270 272
259 265 268 266 266 266 266 266 267 268 269 270 271 272 273 276 278 283 285 286 286 283 280 278 279 279 278 278 279 280 282 283 284 284 287 291 292 289 287 285 283 282 279 276